Agenzia del porto Bunker Vibo
  Sponsor: CATAMARAN CENTER 

OBSERVATIONS
LATEST DOWNLOAD: 2019/01/21 19:13:09

STATION LIMJ/161200
Monday, 21 January 2019, 17:50 UTC

pressure 1013 hPa
temperature 7 °C
dewpoint -3 °C
humidity 48.9%
wind NNE-8 knots
visibility Good
sky -
weather -

MAIN LOCATIONS

HOURLY DATA

HOTEL RESERVATION

WEATHER REPORT WEATHER REPORT

METEOMAR METEOMAR

WEATHER CHARTS WEATHER CHARTS

WEBCAM WEBCAM



 GENOA-SESTRI
COUNTRY
ITALY
     LAT
44.42 N
    LON
8.85 E
    ELEV
3 m
     REGION
Liguria
     PROVINCE
Genova
     ZONE
Northern

LATEST 24 HOURS ( 48 OBSERVATIONS )
Observation time
UTC
temperature
humidity
%
pressure
hPa
  wind
knots
2019/01/21 17:507 481013NNE-8
2019/01/21 17:207 521013ENE-7
2019/01/21 16:507 521013NE-6
2019/01/21 16:207 521013NE-7
2019/01/21 15:509 461013NNE-11
2019/01/21 15:209 461013NNE-9
2019/01/21 14:509 461013NNE-10
2019/01/21 14:209 461013NNE-10
2019/01/21 13:509 461013NNE-9
2019/01/21 13:209 461013NNE-11
2019/01/21 12:509 461014NNE-13
2019/01/21 12:209 461014NNE-11
2019/01/21 11:509 461015NE-10
2019/01/21 11:208 531015NE-9
2019/01/21 10:508 531015NE-9
2019/01/21 10:208 531015VAR-6
2019/01/21 09:507 561015NE-6
2019/01/21 09:206 601015VAR-4
2019/01/21 08:505 651015ENE-5
2019/01/21 08:205 651015NE-7
2019/01/21 07:504 641015NE-7
2019/01/21 07:205 601015NE-6
2019/01/21 06:504 641015NNE-9
2019/01/21 06:204 641015NE-7
2019/01/21 05:505 601015ENE-8
2019/01/21 05:205 651014ENE-9
2019/01/21 04:505 651014ENE-7
2019/01/21 04:205 651014ENE-8
2019/01/21 03:505 651014ENE-5
2019/01/21 03:205 651014ENE-5
2019/01/21 02:506 601015NE-6
2019/01/21 02:206 561015NE-6
2019/01/21 01:206 561015NNE-6
2019/01/21 00:505 601015NE-4
2019/01/21 00:207 481014N-8
2019/01/20 23:506 521015NNE-6
2019/01/20 23:205 601015NNE-5
2019/01/20 22:505 601015NE-6
2019/01/20 22:206 561015NE-7
2019/01/20 21:506 521014NNE-8
2019/01/20 21:205 601014NNE-6
2019/01/20 20:505 651014NE-6
2019/01/20 20:205 651014NE-8
2019/01/20 19:505 651014NE-9
2019/01/20 19:206 601014NE-7
2019/01/20 18:506 601014NE-6
2019/01/20 18:206 561014NE-7
2019/01/20 17:506 561014NE-6
( Previous data )

ARCHIVE   LOCAL FORECASTS   CLIMATE AVERAGES